sat.trackr.live / text

‹ back to catalog

STARLINK-6076

NORAD 56100 · 2023-046H

PAYLOAD ACTIVE UNKNOWN

§ Identity

Operator
Country
US
Launch date
2023-03-29
Launch site
AFETR
Launch vehicle
Mass (kg)
RCS (m²)

Purposes: comms

External: N2YO · Heavens-Above · Gunter

§ Orbital elements

Epoch: 2026-09-20T00:07:17.450976Z

Period
94.27 min
Inclination
43.0028°
Eccentricity
0.0001653
Mean motion
15.27572870 rev/d
Perigee alt
481.9 km
Apogee alt
484.2 km
Semi-major
6,861.2 km
B*
6.7595e-6
RAAN
143.8238°
Arg perigee
268.1104°
Mean anomaly
91.9559°
Rev number
19,175

§ Raw data

STARLINK-60761 56100U 23046H   26263.00506309 -.00000076  00000+0  67595-5 0  99992 56100  43.0028 143.8238 0001653 268.1104  91.9559 15.27572870191752

JSON: /api/v1/satellites/56100 · /tle

For live sub-satellite position, see the globe view (requires WebGL).

§ Visibility from observer

Set your observer location to see the next 7 days of passes ≥ 10°. The values pass through the URL so the page stays shareable.

No JS? Fill the form by hand. The geolocation button needs JavaScript.